Вернуться в каталог

CZ-6A DEB

АктивенSSO
NORAD 54530·DEBRIS·🇨🇳 China

Запущен Nov 11, 2022 с Taiyuan Satellite Launch Center

Loading…

Ближайшие Пролёты (ближайшие 24 часа)

TLE

СвежийSource: Space-Track

Эпоха: Sep 14, 2026, 14:33 UTC

1 54530U 22151KJ  26257.60632470  .00000049  00000-0  50152-4 0  9998
2 54530  98.8301 260.6194 0033333  60.8202 299.6298 14.12366696197678

Отслеживайте CZ-6A DEB в реальном времени с AllMySat

Download on the App Store